This demonstration page uses our WeatherBlox Daily Observations layout. Learn more.

Left ArrowRight Arrow

44.8408, -93.29828

Hourly Observations for March 25, 2020

Temp ( °F °C ) Dew Point ( °F °C ) Humidity (%) Winds ( mph kmh ) Pressure ( in mb ) Visibility ( mi km ) Precip ( " mm )
12:53 am 00:53 Cloudy 43 6.1 36 2.2 76 76 S 8 13 29.83 1010 9 14 0.00 0.00
1:53 am 01:53 Cloudy 44 6.7 37 2.8 76 76 S 9 15 29.83 1010 9 14 0.00 0.00
2:53 am 02:53 Cloudy 44 6.7 38 3.3 79 79 S 8 13 29.80 1009 9 14 0.00 0.00
3:53 am 03:53 Cloudy 44 6.7 39 3.9 83 83 S 6 9 29.78 1008 9 14 0.00 0.00
4:27 am 04:27 Cloudy 44 6.7 39 3.9 83 83 SW 6 9 29.79 1009 9 14 0.00 0.00
4:53 am 04:53 Cloudy 44 6.7 39 3.9 83 83 SW 6 9 29.79 1009 9 14 0.00 0.00
5:17 am 05:17 Cloudy 44 6.7 39 3.9 83 83 S 7 11 29.79 1009 8 13 0.00 0.00
5:53 am 05:53 Cloudy 44 6.7 40 4.4 85 85 SW 6 9 29.78 1009 8 13 0.00 0.00
6:00 am 06:00 Cloudy 44 6.7 40 4.4 85 85 SSW 5 7 29.79 1009 8 13 0.00 0.00
6:53 am 06:53 Cloudy 44 6.7 40 4.4 85 85 SW 5 7 29.79 1009 8 13 0.00 0.00
7:42 am 07:42 Cloudy 44 6.7 40 4.4 85 85 WSW 3 6 29.80 1009 8 13 0.00 0.00
7:53 am 07:53 Cloudy 44 6.7 40 4.4 85 85 Calm 29.80 1009 8 13 0.00 0.00
8:53 am 08:53 Cloudy 45 7.2 41 5 86 86 Calm 29.79 1009 7 11 0.00 0.00
9:53 am 09:53 Cloudy 45 7.2 41 5 86 86 Calm 29.81 1010 7 11 0.00 0.00
10:00 am 10:00 Cloudy 45 7.2 41 5 86 86 Calm 29.82 1010 7 11 0.00 0.00
10:11 am 10:11 Cloudy 46 7.8 40 4.4 79 79 N 8 13 29.81 1009 7 11 0.00 0.00
10:21 am 10:21 Cloudy 46 7.8 40 4.4 79 79 N 12 19 29.80 1009 7 11 0.00 0.00
10:37 am 10:37 Cloudy 46 7.8 40 4.4 79 79 W 5 7 29.85 1011 7 11 0.00 0.00
10:53 am 10:53 Cloudy 47 8.3 40 4.4 77 77 NNW 6 9 29.82 1010 7 11 0.00 0.00
11:53 am 11:53 Cloudy 46 7.8 39 3.9 77 77 Calm 29.83 1010 8 13 0.00 0.00
12:53 pm 12:53 Cloudy 46 7.8 39 3.9 77 77 N 5 7 29.83 1010 8 13 0.00 0.00
1:53 pm 13:53 Cloudy 46 7.8 37 2.8 71 71 N 5 7 29.81 1009 9 14 0.00 0.00
2:53 pm 14:53 Cloudy with Light Rain 44 6.7 39 3.9 83 83 NNW 7 11 29.82 1010 8 13 0.01 0.25
3:08 pm 15:08 Cloudy with Light Rain 43 6.1 39 3.9 86 86 NW 8 13 29.83 1010 8 13 0.01 0.25
3:53 pm 15:53 Cloudy with Light Rain 42 5.6 39 3.9 89 89 NW 9 15 29.82 1010 5 8 0.06 1.52
4:18 pm 16:18 Cloudy with Rain 41 5 38 3.3 89 89 NNW 7 11 29.83 1010 5 8 0.07 1.78
4:46 pm 16:46 Cloudy with Light Rain 41 5 38 3.3 89 89 N 6 9 29.81 1009 6 10 0.13 3.30
4:53 pm 16:53 Cloudy with Light Rain 41 5 38 3.3 89 89 NNE 5 7 29.80 1009 6 10 0.14 3.56
5:29 pm 17:29 Cloudy with Light Rain 40 4.4 38 3.3 93 93 NNW 6 9 29.83 1010 6 10 0.03 0.76
5:53 pm 17:53 Cloudy with Light Rain 40 4.4 38 3.3 93 93 NW 8 13 29.83 1010 5 8 0.05 1.27
6:00 pm 18:00 Cloudy with Light Rain 40 4.4 37 2.8 89 89 NW 8 13 29.85 1011 5 8 0.01 0.25
6:53 pm 18:53 Cloudy with Light Rain 39 3.9 36 2.2 89 89 N 5 7 29.84 1011 7 11 0.04 1.02
7:09 pm 19:09 Cloudy with Light Rain 40 4.4 36 2.2 86 86 NNE 3 6 29.85 1011 7 11 0.00 0.00
7:53 pm 19:53 Cloudy with Light Rain 39 3.9 37 2.8 93 93 Calm 29.84 1011 10 16 0.01 0.25
8:05 pm 20:05 Cloudy 39 3.9 36 2.2 89 89 VRB 3 6 29.86 1011 10 16 0.00 0.00
8:36 pm 20:36 Cloudy 40 4.4 38 3.3 93 93 Calm 29.86 1011 9 14 0.00 0.00
8:53 pm 20:53 Cloudy 39 3.9 37 2.8 93 93 WNW 6 9 29.87 1011 9 14 0.00 0.00
9:03 pm 21:03 Cloudy 39 3.9 37 2.8 93 93 NW 6 9 29.88 1012 7 11 0.00 0.00
9:53 pm 21:53 Cloudy 39 3.9 35 1.7 86 86 N 7 11 29.87 1012 10 16 0.00 0.00
10:53 pm 22:53 Cloudy 38 3.3 33 0.6 83 83 N 8 13 29.89 1012 10 16 0.00 0.00
11:53 pm 23:53 Cloudy 38 3.3 32 0 79 79 N 7 11 29.90 1013 10 16 0.00 0.00

Powered by AerisWeather